,,Stat6,,Stat2,,Stat8,,Stat9,,Stat10,,Wind1,,Wind1,
time,status,PA1M_AVG,status,PR1M_SUM,status,RH1M_AVG,status,SR1M_AVG,status,TA1M_AVG,status,W1dAve1m,status,W1sAve1m,
2003-09-30, 00:00:01,VALID,917.504,VALID,0,VALID,99.7345,VALID,-0.0509425,VALID,19.6987,VALID,139,VALID,0.44186,
2003-09-30, 00:01:01,VALID,917.473,VALID,0,VALID,99.7167,VALID,-0.0339617,VALID,19.6848,VALID,139,VALID,0.5125,
2003-09-30, 00:02:01,VALID,917.447,VALID,0,VALID,99.7078,VALID,-0.0169808,VALID,19.6945,VALID,138,VALID,0.598633,
2003-09-30, 00:03:01,VALID,917.426,VALID,0,VALID,99.6925,VALID,0,VALID,19.6945,VALID,123,VALID,0.528011,
2003-09-30, 00:04:01,VALID,917.432,VALID,0,VALID,99.6976,VALID,0,VALID,19.6945,VALID,78,VALID,0.558117,
2003-09-30, 00:05:01,VALID,917.438,VALID,0,VALID,99.7141,VALID,0,VALID,19.7077,VALID,48,VALID,0.673703,
2003-09-30, 00:06:01,VALID,917.435,VALID,0,VALID,99.7091,VALID,-0.0169808,VALID,19.7107,VALID,48,VALID,0.542411,
2003-09-30, 00:07:01,VALID,917.43,VALID,0,VALID,99.6798,VALID,0,VALID,19.7174,VALID,56,VALID,0.433408,
2003-09-30, 00:08:01,VALID,917.424,VALID,0,VALID,99.6086,VALID,-0.0339617,VALID,19.7112,VALID,91,VALID,0.576982,
2003-09-30, 00:09:01,VALID,917.41,VALID,0,VALID,99.5692,VALID,0,VALID,19.7077,VALID,108,VALID,0.476004,
2003-09-30, 00:10:01,VALID,917.411,VALID,0,VALID,99.6086,VALID,-0.0509425,VALID,19.7176,VALID,134,VALID,0.338796,
2003-09-30, 00:11:01,VALID,917.406,VALID,0,VALID,99.601,VALID,0,VALID,19.7238,VALID,137,VALID,0.888542,
2003-09-30, 00:12:01,VALID,917.396,VALID,0,VALID,99.5616,VALID,-0.0169808,VALID,19.7139,VALID,127,VALID,0.965199,
2003-09-30, 00:13:01,VALID,917.412,VALID,0,VALID,99.5031,VALID,0,VALID,19.704,VALID,109,VALID,1.0043,
2003-09-30, 00:14:01,VALID,917.408,VALID,0,VALID,99.5399,VALID,-0.0339617,VALID,19.7072,VALID,67,VALID,0.567909,
2003-09-30, 00:15:01,VALID,917.415,VALID,0,VALID,99.5183,VALID,-0.0679233,VALID,19.7171,VALID,62,VALID,0.851372,
2003-09-30, 00:16:01,VALID,917.404,VALID,0,VALID,99.456,VALID,-0.0169808,VALID,19.7169,VALID,68,VALID,0.837612,
2003-09-30, 00:17:01,VALID,917.398,VALID,0,VALID,99.4382,VALID,0,VALID,19.7139,VALID,49,VALID,0.633003,
2003-09-30, 00:18:01,VALID,917.376,VALID,0,VALID,99.4102,VALID,-0.101885,VALID,19.7184,VALID,54,VALID,0.542492,
2003-09-30, 00:19:01,VALID,917.355,VALID,0,VALID,99.3924,VALID,-0.101885,VALID,19.7122,VALID,54,VALID,0.188086,
2003-09-30, 00:20:01,VALID,917.336,VALID,0,VALID,99.3759,VALID,-0.0679233,VALID,19.7151,VALID,54,VALID,0.155401,
2003-09-30, 00:21:01,VALID,917.314,VALID,0,VALID,99.4026,VALID,-0.0849042,VALID,19.7122,VALID,43,VALID,0.375977,
2003-09-30, 00:22:01,VALID,917.293,VALID,0,VALID,99.4484,VALID,-0.0509425,VALID,19.7184,VALID,37,VALID,0.419497,
2003-09-30, 00:23:01,VALID,917.277,VALID,0,VALID,99.4102,VALID,-0.101885,VALID,19.7151,VALID,46,VALID,0.417039,
2003-09-30, 00:24:01,VALID,917.271,VALID,0,VALID,99.3912,VALID,-0.0849042,VALID,19.7216,VALID,46,VALID,0.384142,
2003-09-30, 00:25:00,VALID,917.228,VALID,0,VALID,99.3301,VALID,-0.101885,VALID,19.699,VALID,46,VALID,0.180246,
2003-09-30, 00:26:00,VALID,917.201,VALID,0,VALID,99.353,VALID,-0.118866,VALID,19.6923,VALID,49,VALID,0.000390625,
2003-09-30, 00:27:00,VALID,917.189,VALID,0,VALID,99.3975,VALID,-0.101885,VALID,19.699,VALID,107,VALID,0.0666921,
2003-09-30, 00:28:00,VALID,917.17,VALID,0,VALID,99.4166,VALID,-0.0679233,VALID,19.6987,VALID,107,VALID,0.0985863,
2003-09-30, 00:29:00,VALID,917.18,VALID,0,VALID,99.414,VALID,-0.101885,VALID,19.6992,VALID,109,VALID,0.483422,
2003-09-30, 00:30:00,VALID,917.184,VALID,0,VALID,99.3683,VALID,-0.101885,VALID,19.6799,VALID,174,VALID,0.549183,
2003-09-30, 00:31:00,VALID,917.183,VALID,0,VALID,99.4357,VALID,-0.0849042,VALID,19.6866,VALID,293,VALID,0.529297,
2003-09-30, 00:32:00,VALID,917.171,VALID,0,VALID,99.4929,VALID,-0.101885,VALID,19.6734,VALID,305,VALID,0.126563,
2003-09-30, 00:33:00,VALID,917.167,VALID,0,VALID,99.5348,VALID,0,VALID,19.6689,VALID,281,VALID,0.283296,
2003-09-30, 00:34:00,VALID,917.152,VALID,0,VALID,99.5628,VALID,-0.0339617,VALID,19.6719,VALID,248,VALID,0.398438,
2003-09-30, 00:35:00,VALID,917.135,VALID,0,VALID,99.5781,VALID,0.0169808,VALID,19.6555,VALID,248,VALID,0.147693,
2003-09-30, 00:36:00,VALID,917.12,VALID,0,VALID,99.6188,VALID,0,VALID,19.6555,VALID,248,VALID,0,
2003-09-30, 00:37:00,VALID,917.118,VALID,0,VALID,99.6722,VALID,0,VALID,19.6655,VALID,248,VALID,0,
2003-09-30, 00:38:00,VALID,917.122,VALID,0,VALID,99.7014,VALID,0,VALID,19.6717,VALID,248,VALID,0,
2003-09-30, 00:39:00,VALID,917.138,VALID,0,VALID,99.7269,VALID,0.0169808,VALID,19.6615,VALID,248,VALID,0.0137649,
2003-09-30, 00:40:00,VALID,917.154,VALID,0,VALID,99.7447,VALID,0,VALID,19.6684,VALID,273,VALID,0.445508,
2003-09-30, 00:41:00,VALID,917.16,VALID,0,VALID,99.7726,VALID,0.0169808,VALID,19.6749,VALID,275,VALID,0.183398,
2003-09-30, 00:42:00,VALID,917.149,VALID,0,VALID,99.7968,VALID,0,VALID,19.6622,VALID,275,VALID,0.0303622,
2003-09-30, 00:43:00,VALID,917.147,VALID,0,VALID,99.7955,VALID,0,VALID,19.6518,VALID,275,VALID,0,
2003-09-30, 00:44:00,VALID,917.124,VALID,0,VALID,99.8133,VALID,0,VALID,19.656,VALID,275,VALID,0,
2003-09-30, 00:45:00,VALID,917.116,VALID,0,VALID,99.8375,VALID,0,VALID,19.6687,VALID,275,VALID,0.0245536,
2003-09-30, 00:46:00,VALID,917.12,VALID,0,VALID,99.8553,VALID,0.0169808,VALID,19.662,VALID,275,VALID,0.0353423,
2003-09-30, 00:47:00,VALID,917.112,VALID,0,VALID,99.8655,VALID,0,VALID,19.6684,VALID,275,VALID,0,
2003-09-30, 00:48:00,VALID,917.118,VALID,0,VALID,99.8756,VALID,0.0169808,VALID,19.6749,VALID,275,VALID,0,
2003-09-30, 00:49:00,VALID,917.121,VALID,0,VALID,99.8947,VALID,0,VALID,19.691,VALID,275,VALID,0,
2003-09-30, 00:50:00,VALID,917.118,VALID,0,VALID,99.929,VALID,0,VALID,19.7204,VALID,327,VALID,0.222656,
2003-09-30, 00:51:00,VALID,917.117,VALID,0,VALID,99.943,VALID,0,VALID,19.7298,VALID,7,VALID,0.71968,
2003-09-30, 00:52:00,VALID,917.105,VALID,0,VALID,99.9405,VALID,0,VALID,19.7233,VALID,7,VALID,0.526414,
2003-09-30, 00:53:00,VALID,917.087,VALID,0,VALID,99.9163,VALID,0.0169808,VALID,19.701,VALID,7,VALID,0.15625,
2003-09-30, 00:54:00,VALID,917.08,VALID,0,VALID,99.9252,VALID,0.0169808,VALID,19.6913,VALID,7,VALID,0.00266335,
2003-09-30, 00:55:00,VALID,917.073,VALID,0,VALID,99.9125,VALID,0,VALID,19.6779,VALID,7,VALID,0,
2003-09-30, 00:56:00,VALID,917.07,VALID,0,VALID,99.9392,VALID,0.0339617,VALID,19.6878,VALID,7,VALID,0,
2003-09-30, 00:57:00,VALID,917.059,VALID,0,VALID,99.9583,VALID,-0.0169808,VALID,19.7007,VALID,7,VALID,0,
2003-09-30, 00:58:00,VALID,917.057,VALID,0,VALID,99.9735,VALID,0.0169808,VALID,19.701,VALID,7,VALID,0,
2003-09-30, 00:59:00,VALID,917.05,VALID,0,VALID,99.9748,VALID,0,VALID,19.7074,VALID,7,VALID,0,
2003-09-30, 01:00:00,VALID,917.051,VALID,0,VALID,99.9608,VALID,0,VALID,19.704,VALID,7,VALID,0,
2003-09-30, 01:01:00,VALID,917.054,VALID,0,VALID,99.9761,VALID,0.0169808,VALID,19.7109,VALID,7,VALID,0.0613839,
2003-09-30, 01:02:00,VALID,917.037,VALID,0,VALID,99.9812,VALID,0.0169808,VALID,19.7074,VALID,13,VALID,0.237537,
2003-09-30, 01:03:00,VALID,917.031,VALID,0,VALID,99.9863,VALID,-0.0679233,VALID,19.6953,VALID,44,VALID,0.623611,
2003-09-30, 01:04:00,VALID,917.038,VALID,0,VALID,99.9825,VALID,-0.101885,VALID,19.6893,VALID,46,VALID,0.549653,
2003-09-30, 01:05:00,VALID,917.025,VALID,0,VALID,99.9596,VALID,-0.101885,VALID,19.657,VALID,54,VALID,0.74349,
2003-09-30, 01:06:00,VALID,917.022,VALID,0,VALID,99.9405,VALID,-0.101885,VALID,19.6443,VALID,45,VALID,0.909817,
2003-09-30, 01:07:00,VALID,917.02,VALID,0,VALID,99.9329,VALID,-0.0849042,VALID,19.6182,VALID,50,VALID,1.01399,
2003-09-30, 01:08:00,VALID,917.028,VALID,0,VALID,99.9227,VALID,-0.0679233,VALID,19.5956,VALID,50,VALID,0.930556,
2003-09-30, 01:09:00,VALID,917.023,VALID,0,VALID,99.9112,VALID,-0.0849042,VALID,19.5698,VALID,36,VALID,0.791243,
2003-09-30, 01:10:00,VALID,917.017,VALID,0,VALID,99.9316,VALID,-0.0679233,VALID,19.5728,VALID,28,VALID,0.773996,
2003-09-30, 01:11:00,VALID,917.008,VALID,0,VALID,99.9596,VALID,-0.0679233,VALID,19.5633,VALID,23,VALID,0.872024,
2003-09-30, 01:12:00,VALID,916.98,VALID,0,VALID,99.9735,VALID,-0.101885,VALID,19.5606,VALID,27,VALID,0.913881,
2003-09-30, 01:13:00,VALID,916.95,VALID,0,VALID,99.9672,VALID,-0.0679233,VALID,19.5472,VALID,26,VALID,0.566051,
2003-09-30, 01:14:00,VALID,916.922,VALID,0,VALID,99.9959,VALID,-0.0679233,VALID,19.5638,VALID,26,VALID,0.293255,
2003-09-30, 01:15:00,VALID,916.881,VALID,0,VALID,99.999,VALID,-0.0849042,VALID,19.5733,VALID,26,VALID,0.439787,
2003-09-30, 01:16:00,VALID,916.842,VALID,0,VALID,100,VALID,-0.0509425,VALID,19.5663,VALID,13,VALID,0.697443,
2003-09-30, 01:17:00,VALID,916.81,VALID,0,VALID,100,VALID,-0.0679233,VALID,19.5469,VALID,6,VALID,1.04074,
2003-09-30, 01:18:00,VALID,916.784,VALID,0,VALID,100,VALID,-0.0169808,VALID,19.5326,VALID,17,VALID,0.547852,
2003-09-30, 01:19:00,VALID,916.783,VALID,0,VALID,100,VALID,-0.0169808,VALID,19.5462,VALID,1,VALID,0.793146,
2003-09-30, 01:20:00,VALID,916.78,VALID,0,VALID,99.9908,VALID,0,VALID,19.5435,VALID,6,VALID,0.639915,
2003-09-30, 01:21:00,VALID,916.782,VALID,0,VALID,99.9685,VALID,0.0169808,VALID,19.5206,VALID,359,VALID,0.934411,
2003-09-30, 01:22:00,VALID,916.776,VALID,0,VALID,99.9557,VALID,0.0339617,VALID,19.5234,VALID,348,VALID,0.787388,
2003-09-30, 01:23:00,VALID,916.755,VALID,0,VALID,99.9265,VALID,0,VALID,19.5067,VALID,347,VALID,0.661156,
2003-09-30, 01:24:00,VALID,916.743,VALID,0,VALID,99.9036,VALID,0,VALID,19.5236,VALID,353,VALID,0.539232,
2003-09-30, 01:25:00,VALID,916.727,VALID,0,VALID,99.882,VALID,-0.0169808,VALID,19.5437,VALID,351,VALID,0.391959,
2003-09-30, 01:26:00,VALID,916.705,VALID,0,VALID,99.8807,VALID,-0.0169808,VALID,19.5529,VALID,312,VALID,0.425604,
2003-09-30, 01:27:00,VALID,916.706,VALID,0,VALID,99.8922,VALID,-0.0169808,VALID,19.5847,VALID,325,VALID,0.140244,
2003-09-30, 01:28:00,VALID,916.69,VALID,0,VALID,99.8833,VALID,0,VALID,19.5981,VALID,335,VALID,0.157965,
2003-09-30, 01:29:00,VALID,916.696,VALID,0,VALID,99.8718,VALID,0,VALID,19.5942,VALID,353,VALID,0.0613281,
2003-09-30, 01:30:00,VALID,916.708,VALID,0,VALID,99.8299,VALID,0,VALID,19.582,VALID,353,VALID,0,
2003-09-30, 01:31:00,VALID,916.71,VALID,0,VALID,99.8477,VALID,-0.0169808,VALID,19.5887,VALID,353,VALID,0.026242,
2003-09-30, 01:32:00,VALID,916.713,VALID,0,VALID,99.8642,VALID,0,VALID,19.5944,VALID,353,VALID,0.0984003,
2003-09-30, 01:33:00,VALID,916.718,VALID,0,VALID,99.8706,VALID,0.0169808,VALID,19.6011,VALID,358,VALID,0.292878,
2003-09-30, 01:34:00,VALID,916.721,VALID,0,VALID,99.8604,VALID,0.0339617,VALID,19.6011,VALID,357,VALID,0.718941,
2003-09-30, 01:35:00,VALID,916.722,VALID,0,VALID,99.7892,VALID,0,VALID,19.5624,VALID,359,VALID,1.03052,
2003-09-30, 01:36:00,VALID,916.726,VALID,0,VALID,99.6735,VALID,0.0169808,VALID,19.5527,VALID,11,VALID,1.36514,
2003-09-30, 01:37:00,VALID,916.721,VALID,0,VALID,99.5832,VALID,0,VALID,19.5713,VALID,11,VALID,0.626758,
2003-09-30, 01:38:00,VALID,916.709,VALID,0,VALID,99.4764,VALID,0,VALID,19.5944,VALID,11,VALID,0.654018,
2003-09-30, 01:39:00,VALID,916.693,VALID,0,VALID,99.409,VALID,-0.0169808,VALID,19.611,VALID,9,VALID,0.532812,
2003-09-30, 01:40:00,VALID,916.678,VALID,0,VALID,99.2411,VALID,0,VALID,19.5974,VALID,8,VALID,0.797215,
2003-09-30, 01:41:00,VALID,916.647,VALID,0,VALID,99.0338,VALID,0,VALID,19.62,VALID,360,VALID,0.631722,
2003-09-30, 01:42:00,VALID,916.629,VALID,0,VALID,98.8126,VALID,0,VALID,19.657,VALID,350,VALID,0.523438,
2003-09-30, 01:43:00,VALID,916.617,VALID,0,VALID,98.6167,VALID,0.0169808,VALID,19.6523,VALID,337,VALID,0.504102,
2003-09-30, 01:44:00,VALID,916.614,VALID,0,VALID,98.5201,VALID,0,VALID,19.662,VALID,265,VALID,0.533736,
2003-09-30, 01:45:00,VALID,916.611,VALID,0,VALID,98.5392,VALID,0,VALID,19.6689,VALID,245,VALID,0.271802,
2003-09-30, 01:46:00,VALID,916.614,VALID,0,VALID,98.5926,VALID,0,VALID,19.652,VALID,245,VALID,0.0634084,
2003-09-30, 01:47:00,VALID,916.616,VALID,0,VALID,98.632,VALID,0,VALID,19.656,VALID,307,VALID,0.294744,
2003-09-30, 01:48:00,VALID,916.615,VALID,0,VALID,98.5761,VALID,0,VALID,19.6366,VALID,4,VALID,0.823509,
2003-09-30, 01:49:00,VALID,916.621,VALID,0,VALID,98.4921,VALID,0.0169808,VALID,19.653,VALID,15,VALID,1.08798,
2003-09-30, 01:50:00,VALID,916.624,VALID,0,VALID,98.3713,VALID,0,VALID,19.6692,VALID,6,VALID,1.00856,
2003-09-30, 01:51:00,VALID,916.608,VALID,0,VALID,98.295,VALID,0,VALID,19.6789,VALID,8,VALID,0.955171,
2003-09-30, 01:52:00,VALID,916.625,VALID,0,VALID,98.3077,VALID,0,VALID,19.6786,VALID,8,VALID,0.499112,
2003-09-30, 01:53:00,VALID,916.609,VALID,0,VALID,98.3167,VALID,0.0169808,VALID,19.6816,VALID,2,VALID,0.572049,
2003-09-30, 01:54:00,VALID,916.606,VALID,0,VALID,98.2594,VALID,0.0169808,VALID,19.6717,VALID,11,VALID,0.843205,
2003-09-30, 01:55:00,VALID,916.609,VALID,0,VALID,98.2569,VALID,0.0169808,VALID,19.6754,VALID,15,VALID,1.06372,
2003-09-30, 01:56:00,VALID,916.608,VALID,0,VALID,98.2365,VALID,0.0339617,VALID,19.6883,VALID,14,VALID,1.17764,
2003-09-30, 01:57:00,VALID,916.598,VALID,0,VALID,98.1984,VALID,0,VALID,19.6848,VALID,13,VALID,1.02965,
2003-09-30, 01:58:00,VALID,916.609,VALID,0,VALID,98.1424,VALID,0,VALID,19.6816,VALID,19,VALID,0.952303,
2003-09-30, 01:59:00,VALID,916.6,VALID,0,VALID,98.145,VALID,0.0169808,VALID,19.7015,VALID,24,VALID,0.84096,
2003-09-30, 02:00:00,VALID,916.608,VALID,0,VALID,98.0585,VALID,0,VALID,19.7074,VALID,28,VALID,0.849355,
2003-09-30, 02:01:00,VALID,916.599,VALID,0,VALID,98.0026,VALID,0.0169808,VALID,19.7104,VALID,20,VALID,0.501302,
2003-09-30, 02:02:00,VALID,916.58,VALID,0,VALID,98.0153,VALID,-0.0169808,VALID,19.7333,VALID,18,VALID,0.280523,
2003-09-30, 02:03:00,VALID,916.582,VALID,0,VALID,97.9771,VALID,0.0339617,VALID,19.743,VALID,18,VALID,0.271763,
2003-09-30, 02:04:00,VALID,916.56,VALID,0,VALID,97.9212,VALID,0,VALID,19.7395,VALID,18,VALID,0.0531994,
2003-09-30, 02:05:00,VALID,916.547,VALID,0,VALID,97.9237,VALID,0.0169808,VALID,19.7464,VALID,18,VALID,0.000762195,
2003-09-30, 02:06:00,VALID,916.52,VALID,0,VALID,97.8373,VALID,0,VALID,19.7298,VALID,18,VALID,0.110705,
2003-09-30, 02:07:00,VALID,916.508,VALID,0,VALID,97.7711,VALID,0.0169808,VALID,19.7365,VALID,18,VALID,0,
2003-09-30, 02:08:00,VALID,916.486,VALID,0,VALID,97.7648,VALID,0.0339617,VALID,19.73,VALID,18,VALID,0,
2003-09-30, 02:09:00,VALID,916.465,VALID,0,VALID,97.822,VALID,0.0339617,VALID,19.73,VALID,18,VALID,0,
2003-09-30, 02:10:00,VALID,916.438,VALID,0,VALID,97.9301,VALID,0.0169808,VALID,19.733,VALID,18,VALID,0.0325838,
2003-09-30, 02:11:00,VALID,916.435,VALID,0,VALID,97.9301,VALID,-0.0169808,VALID,19.7561,VALID,18,VALID,0.138139,
2003-09-30, 02:12:00,VALID,916.414,VALID,0,VALID,97.9593,VALID,0,VALID,19.74,VALID,18,VALID,0.18936,
2003-09-30, 02:13:00,VALID,916.405,VALID,0,VALID,98.1526,VALID,0.0339617,VALID,19.7492,VALID,18,VALID,0.201672,
2003-09-30, 02:14:00,VALID,916.394,VALID,0,VALID,98.1615,VALID,0,VALID,19.7755,VALID,18,VALID,0.37128,
2003-09-30, 02:15:00,VALID,916.379,VALID,0,VALID,98.131,VALID,0.0169808,VALID,19.743,VALID,33,VALID,0.48274,
2003-09-30, 02:16:00,VALID,916.366,VALID,0,VALID,98.0331,VALID,0.0339617,VALID,19.743,VALID,40,VALID,0.388672,
2003-09-30, 02:17:00,VALID,916.345,VALID,0,VALID,97.9161,VALID,0,VALID,19.7236,VALID,52,VALID,0.349787,
2003-09-30, 02:18:00,VALID,916.326,VALID,0,VALID,97.8487,VALID,-0.0849042,VALID,19.7117,VALID,59,VALID,0.220846,
2003-09-30, 02:19:00,VALID,916.325,VALID,0,VALID,97.8563,VALID,-0.0509425,VALID,19.7087,VALID,59,VALID,0.149771,
2003-09-30, 02:20:00,VALID,916.312,VALID,0,VALID,97.9428,VALID,-0.0339617,VALID,19.7117,VALID,59,VALID,0.161966,
2003-09-30, 02:21:00,VALID,916.304,VALID,0,VALID,98.0738,VALID,-0.0849042,VALID,19.7507,VALID,40,VALID,0.255766,
2003-09-30, 02:22:00,VALID,916.291,VALID,0,VALID,98.0916,VALID,-0.101885,VALID,19.7474,VALID,24,VALID,0.29516,
2003-09-30, 02:23:00,VALID,916.273,VALID,0,VALID,98.0611,VALID,-0.0509425,VALID,19.7536,VALID,24,VALID,0.25343,
2003-09-30, 02:24:00,VALID,916.25,VALID,0,VALID,98.0318,VALID,-0.0509425,VALID,19.7437,VALID,12,VALID,0.331101,
2003-09-30, 02:25:00,VALID,916.238,VALID,0,VALID,97.9275,VALID,-0.0849042,VALID,19.7243,VALID,11,VALID,0.212984,
2003-09-30, 02:26:00,VALID,916.226,VALID,0,VALID,97.9949,VALID,-0.101885,VALID,19.7348,VALID,11,VALID,0.0850883,
2003-09-30, 02:27:00,VALID,916.213,VALID,0,VALID,98.0305,VALID,-0.0339617,VALID,19.7509,VALID,11,VALID,0.0772758,
2003-09-30, 02:28:00,VALID,916.21,VALID,0,VALID,97.953,VALID,-0.0849042,VALID,19.7472,VALID,11,VALID,0,
2003-09-30, 02:29:00,VALID,916.202,VALID,0,VALID,97.8512,VALID,-0.0679233,VALID,19.7444,VALID,11,VALID,0.0297965,
2003-09-30, 02:30:00,VALID,916.191,VALID,0,VALID,97.7241,VALID,-0.0509425,VALID,19.7281,VALID,12,VALID,0.288699,
2003-09-30, 02:31:00,VALID,916.179,VALID,0,VALID,97.7851,VALID,-0.0679233,VALID,19.7281,VALID,97,VALID,0.424733,
2003-09-30, 02:32:00,VALID,916.174,VALID,0,VALID,97.9326,VALID,-0.0679233,VALID,19.7276,VALID,117,VALID,0.332711,
2003-09-30, 02:33:00,VALID,916.162,VALID,0,VALID,97.9352,VALID,-0.0509425,VALID,19.7246,VALID,117,VALID,0.0807884,
2003-09-30, 02:34:00,VALID,916.149,VALID,0,VALID,97.8754,VALID,-0.0169808,VALID,19.7181,VALID,117,VALID,0.0928416,
2003-09-30, 02:35:00,VALID,916.129,VALID,0,VALID,97.8601,VALID,-0.0339617,VALID,19.705,VALID,117,VALID,0.15811,
2003-09-30, 02:36:00,VALID,916.114,VALID,0,VALID,97.9746,VALID,-0.0339617,VALID,19.7179,VALID,63,VALID,0.202567,
2003-09-30, 02:37:00,VALID,916.101,VALID,0,VALID,98.0433,VALID,-0.0509425,VALID,19.731,VALID,49,VALID,0.134722,
2003-09-30, 02:38:00,VALID,916.09,VALID,0,VALID,98.1119,VALID,-0.0339617,VALID,19.7407,VALID,49,VALID,0.00218023,
2003-09-30, 02:39:00,VALID,916.088,VALID,0,VALID,98.1793,VALID,-0.0169808,VALID,19.7504,VALID,49,VALID,0,
2003-09-30, 02:40:00,VALID,916.084,VALID,0,VALID,98.1717,VALID,-0.0339617,VALID,19.7539,VALID,49,VALID,0,
2003-09-30, 02:41:00,VALID,916.084,VALID,0,VALID,98.22,VALID,-0.0339617,VALID,19.744,VALID,49,VALID,0,
2003-09-30, 02:42:00,VALID,916.075,VALID,0,VALID,98.3154,VALID,-0.0509425,VALID,19.7636,VALID,49,VALID,0,
2003-09-30, 02:43:00,VALID,916.061,VALID,0,VALID,98.1857,VALID,-0.0849042,VALID,19.7502,VALID,49,VALID,0,
2003-09-30, 02:44:00,VALID,916.045,VALID,0,VALID,97.9568,VALID,-0.101885,VALID,19.7345,VALID,49,VALID,0,
2003-09-30, 02:45:00,VALID,916.019,VALID,0,VALID,97.7864,VALID,-0.0849042,VALID,19.7179,VALID,49,VALID,0.0511533,
2003-09-30, 02:46:00,VALID,916.01,VALID,0,VALID,97.6313,VALID,-0.0679233,VALID,19.7248,VALID,50,VALID,0.381055,
2003-09-30, 02:47:00,VALID,915.988,VALID,0,VALID,97.4634,VALID,-0.0339617,VALID,19.7348,VALID,61,VALID,0.534307,
2003-09-30, 02:48:00,VALID,915.983,VALID,0,VALID,97.3134,VALID,-0.0679233,VALID,19.731,VALID,69,VALID,0.570126,
2003-09-30, 02:49:00,VALID,915.982,VALID,0,VALID,97.1913,VALID,-0.101885,VALID,19.7412,VALID,69,VALID,0.529948,
2003-09-30, 02:50:00,VALID,915.983,VALID,0,VALID,97.0629,VALID,-0.0339617,VALID,19.7566,VALID,69,VALID,0.419331,
2003-09-30, 02:51:00,VALID,915.978,VALID,0,VALID,97.0527,VALID,-0.0679233,VALID,19.773,VALID,56,VALID,0.456032,
2003-09-30, 02:52:00,VALID,915.975,VALID,0,VALID,97.0819,VALID,-0.0679233,VALID,19.7892,VALID,34,VALID,0.498094,
2003-09-30, 02:53:00,VALID,915.982,VALID,0,VALID,97.1442,VALID,-0.0849042,VALID,19.7959,VALID,26,VALID,0.659076,
2003-09-30, 02:54:00,VALID,915.976,VALID,0,VALID,97.1391,VALID,-0.0339617,VALID,19.7763,VALID,25,VALID,0.778832,
2003-09-30, 02:55:00,VALID,915.963,VALID,0,VALID,97.1455,VALID,-0.0509425,VALID,19.7626,VALID,24,VALID,0.590278,
2003-09-30, 02:56:00,VALID,915.958,VALID,0,VALID,97.1684,VALID,-0.0849042,VALID,19.7758,VALID,24,VALID,0.773074,
2003-09-30, 02:57:00,VALID,915.959,VALID,0,VALID,97.0323,VALID,-0.0339617,VALID,19.776,VALID,22,VALID,0.94779,
2003-09-30, 02:58:00,VALID,915.94,VALID,0,VALID,97.0209,VALID,-0.0169808,VALID,19.7924,VALID,17,VALID,0.742898,
2003-09-30, 02:59:00,VALID,915.922,VALID,0,VALID,97.0654,VALID,-0.0169808,VALID,19.7989,VALID,15,VALID,0.880814,
2003-09-30, 03:00:00,VALID,915.921,VALID,0,VALID,97.0298,VALID,-0.0339617,VALID,19.7929,VALID,9,VALID,0.916159,
2003-09-30, 03:01:00,VALID,915.927,VALID,0,VALID,97.0196,VALID,-0.0509425,VALID,19.7763,VALID,354,VALID,0.799609,
2003-09-30, 03:02:00,VALID,915.921,VALID,0,VALID,97.0705,VALID,-0.0509425,VALID,19.7499,VALID,2,VALID,0.750572,
2003-09-30, 03:03:00,VALID,915.925,VALID,0,VALID,97.1824,VALID,-0.0509425,VALID,19.7372,VALID,351,VALID,0.617578,
2003-09-30, 03:04:00,VALID,915.941,VALID,0,VALID,97.2841,VALID,-0.0509425,VALID,19.7107,VALID,333,VALID,0.521763,
2003-09-30, 03:05:00,VALID,915.936,VALID,0,VALID,97.4164,VALID,-0.0509425,VALID,19.7281,VALID,3,VALID,0.63899,
2003-09-30, 03:06:00,VALID,915.944,VALID,0,VALID,97.4723,VALID,-0.0339617,VALID,19.695,VALID,11,VALID,0.481286,
2003-09-30, 03:07:00,VALID,915.957,VALID,0,VALID,97.5715,VALID,0,VALID,19.6915,VALID,10,VALID,0.167081,
2003-09-30, 03:08:00,VALID,915.967,VALID,0,VALID,97.616,VALID,-0.0169808,VALID,19.699,VALID,8,VALID,0.0171494,
2003-09-30, 03:09:00,VALID,915.959,VALID,0,VALID,97.6948,VALID,-0.0169808,VALID,19.6888,VALID,8,VALID,0,
2003-09-30, 03:10:00,VALID,915.956,VALID,0,VALID,97.7927,VALID,-0.0509425,VALID,19.702,VALID,8,VALID,0,
2003-09-30, 03:11:00,VALID,915.965,VALID,0,VALID,97.8462,VALID,-0.0509425,VALID,19.7017,VALID,8,VALID,0,
2003-09-30, 03:12:00,VALID,915.959,VALID,0,VALID,97.9542,VALID,-0.0509425,VALID,19.705,VALID,8,VALID,0,
2003-09-30, 03:13:00,VALID,915.957,VALID,0,VALID,98.0267,VALID,-0.0509425,VALID,19.7117,VALID,8,VALID,0,
2003-09-30, 03:14:00,VALID,915.965,VALID,0,VALID,98.0165,VALID,-0.0849042,VALID,19.7017,VALID,8,VALID,0,
2003-09-30, 03:15:00,VALID,915.964,VALID,0,VALID,98.0318,VALID,-0.0509425,VALID,19.7054,VALID,8,VALID,0.0494792,
2003-09-30, 03:16:00,VALID,915.961,VALID,0,VALID,98.0382,VALID,-0.0339617,VALID,19.695,VALID,2,VALID,0.473656,
2003-09-30, 03:17:00,VALID,915.969,VALID,0,VALID,97.9326,VALID,-0.0679233,VALID,19.6828,VALID,357,VALID,0.178089,
2003-09-30, 03:18:00,VALID,915.977,VALID,0,VALID,98.0509,VALID,-0.101885,VALID,19.6595,VALID,347,VALID,0.245617,
2003-09-30, 03:19:00,VALID,915.983,VALID,0,VALID,98.178,VALID,-0.0679233,VALID,19.6602,VALID,327,VALID,0.560785,
2003-09-30, 03:20:00,VALID,916.012,VALID,0,VALID,98.2327,VALID,-0.0679233,VALID,19.6473,VALID,327,VALID,0.352431,
2003-09-30, 03:21:00,VALID,916.036,VALID,0,VALID,98.3879,VALID,-0.0679233,VALID,19.6473,VALID,321,VALID,0.0638021,
2003-09-30, 03:22:00,VALID,916.069,VALID,0,VALID,98.5125,VALID,-0.0679233,VALID,19.6307,VALID,311,VALID,0.235863,
2003-09-30, 03:23:00,VALID,916.083,VALID,0,VALID,98.632,VALID,-0.101885,VALID,19.6344,VALID,294,VALID,0.095348,
2003-09-30, 03:24:00,VALID,916.107,VALID,0,VALID,98.7592,VALID,-0.0339617,VALID,19.6346,VALID,292,VALID,0.265234,
2003-09-30, 03:25:00,VALID,916.118,VALID,0,VALID,98.866,VALID,-0.0679233,VALID,19.6148,VALID,292,VALID,0.15253,
2003-09-30, 03:26:00,VALID,916.116,VALID,0,VALID,98.9804,VALID,-0.101885,VALID,19.6088,VALID,292,VALID,0,
2003-09-30, 03:27:00,VALID,916.122,VALID,0,VALID,99.0745,VALID,-0.0509425,VALID,19.6086,VALID,266,VALID,0.0509673,
2003-09-30, 03:28:00,VALID,916.136,VALID,0,VALID,99.1381,VALID,-0.101885,VALID,19.6187,VALID,191,VALID,0.211846,
2003-09-30, 03:29:00,VALID,916.161,VALID,0,VALID,99.2119,VALID,-0.0849042,VALID,19.6215,VALID,184,VALID,0.238104,
2003-09-30, 03:30:00,VALID,916.172,VALID,0,VALID,99.2322,VALID,-0.101885,VALID,19.6056,VALID,142,VALID,0.170387,
2003-09-30, 03:31:00,VALID,916.19,VALID,0,VALID,99.2373,VALID,-0.118866,VALID,19.5961,VALID,141,VALID,0.243823,
2003-09-30, 03:32:00,VALID,916.196,VALID,0,VALID,99.2793,VALID,-0.0849042,VALID,19.5792,VALID,141,VALID,0,
2003-09-30, 03:33:00,VALID,916.204,VALID,0,VALID,99.2894,VALID,0,VALID,19.5686,VALID,141,VALID,0,
2003-09-30, 03:34:00,VALID,916.201,VALID,0,VALID,99.306,VALID,0.0169808,VALID,19.5589,VALID,141,VALID,0,
2003-09-30, 03:35:00,VALID,916.221,VALID,0,VALID,99.2932,VALID,0,VALID,19.5529,VALID,104,VALID,0.174782,
2003-09-30, 03:36:00,VALID,916.233,VALID,0,VALID,99.311,VALID,0.0169808,VALID,19.5619,VALID,27,VALID,0.355655,
2003-09-30, 03:37:00,VALID,916.233,VALID,0,VALID,99.3276,VALID,0.0169808,VALID,19.5815,VALID,24,VALID,0.666903,